When you browse on this site, cookies collect data to enhance your experience and personalize the content and advertising you see.
Visit our Privacy Policy to learn more. By continuing to use the site, you agree to this use of cookies and data.
  • In Schweiz
  • Länderverzeichnis
  • Für 7 Tage
  • Wassertemperatur
  • Wetterkarte
  • Widgets
  • user-avatar
    Anmelden

    Stündliche Wetter Lambaréné

    Heute, 23 Oktober, Mittwoch

    Zeit Temperatur Niederschläge Wind Luftdruck Luftfeuchtigkeit
    00:00 +25°C° 0.4 mm 1 m/S 752 mmHg 97%
    01:00 +25°C° 0.4 mm 1 m/S 752 mmHg 97%
    02:00 +25°C° 0 mm 1 m/S 752 mmHg 98%
    03:00 +22°C° 0 mm 0 m/S 751 mmHg 98%
    04:00 +22°C° 0 mm 0 m/S 751 mmHg 98%
    05:00 +23°C° 0 mm 0 m/S 752 mmHg 98%
    06:00 +23°C° 0 mm 0 m/S 752 mmHg 97%
    07:00 +23°C° 0 mm 0 m/S 753 mmHg 97%
    08:00 +25°C° 0.1 mm 0 m/S 753 mmHg 87%
    09:00 +28°C° 0.1 mm 0 m/S 753 mmHg 77%
    10:00 +30°C° 0.1 mm 0 m/S 753 mmHg 67%
    11:00 +32°C° 0.2 mm 1 m/S 752 mmHg 65%
    12:00 +33°C° 0.2 mm 1 m/S 751 mmHg 63%
    13:00 +34°C° 0.2 mm 2 m/S 751 mmHg 61%
    14:00 +32°C° 1.9 mm 2 m/S 750 mmHg 70%
    15:00 +30°C° 1.9 mm 3 m/S 750 mmHg 80%
    16:00 +29°C° 1.9 mm 3 m/S 749 mmHg 90%
    17:00 +28°C° 1.9 mm 3 m/S 750 mmHg 92%
    18:00 +26°C° 1.9 mm 2 m/S 751 mmHg 94%
    19:00 +25°C° 1.9 mm 2 m/S 752 mmHg 97%
    20:00 +25°C° 0.9 mm 1 m/S 752 mmHg 97%
    21:00 +25°C° 0.9 mm 1 m/S 752 mmHg 97%
    22:00 +23°C° 0.9 mm 0 m/S 753 mmHg 97%
    23:00 +23°C° 0.1 mm 0 m/S 753 mmHg 97%

    Morgen, 24 Oktober, Donnerstag

    Zeit Temperatur Niederschläge Wind Luftdruck Luftfeuchtigkeit
    00:00 +23°C° 0.1 mm 0 m/S 752 mmHg 98%
    01:00 +23°C° 0.1 mm 0 m/S 752 mmHg 98%
    02:00 +23°C° 0 mm 0 m/S 752 mmHg 98%
    03:00 +22°C° 0 mm 0 m/S 751 mmHg 98%
    04:00 +22°C° 0 mm 0 m/S 751 mmHg 98%
    05:00 +23°C° 0 mm 0 m/S 752 mmHg 97%
    06:00 +23°C° 0 mm 0 m/S 752 mmHg 97%
    07:00 +23°C° 0 mm 0 m/S 753 mmHg 96%
    08:00 +25°C° 0 mm 0 m/S 753 mmHg 89%
    09:00 +27°C° 0 mm 0 m/S 753 mmHg 81%
    10:00 +31°C° 0 mm 1 m/S 754 mmHg 74%
    11:00 +31°C° 0.8 mm 1 m/S 753 mmHg 74%
    12:00 +31°C° 0.8 mm 1 m/S 752 mmHg 74%
    13:00 +32°C° 0.8 mm 1 m/S 751 mmHg 74%
    14:00 +31°C° 2.2 mm 2 m/S 751 mmHg 79%
    15:00 +30°C° 2.2 mm 2 m/S 750 mmHg 85%
    16:00 +29°C° 2.2 mm 2 m/S 750 mmHg 90%
    17:00 +28°C° 2 mm 2 m/S 751 mmHg 92%
    18:00 +27°C° 2 mm 2 m/S 751 mmHg 94%
    19:00 +26°C° 2 mm 2 m/S 752 mmHg 95%
    20:00 +26°C° 2.4 mm 2 m/S 752 mmHg 96%
    21:00 +25°C° 2.4 mm 2 m/S 753 mmHg 97%
    22:00 +25°C° 2.4 mm 2 m/S 754 mmHg 97%
    23:00 +25°C° 2 mm 2 m/S 753 mmHg 97%

    übermorgen, 25 Oktober, Freitag

    Zeit Temperatur Niederschläge Wind Luftdruck Luftfeuchtigkeit
    00:00 +25°C° 2 mm 2 m/S 753 mmHg 97%
    01:00 +25°C° 2 mm 2 m/S 753 mmHg 96%
    02:00 +25°C° 0.6 mm 2 m/S 753 mmHg 97%
    03:00 +25°C° 0.6 mm 2 m/S 752 mmHg 97%
    04:00 +25°C° 0.6 mm 2 m/S 752 mmHg 98%
    05:00 +25°C° 0.2 mm 2 m/S 753 mmHg 97%
    06:00 +25°C° 0.2 mm 2 m/S 753 mmHg 97%
    07:00 +25°C° 0.2 mm 2 m/S 754 mmHg 97%
    08:00 +26°C° 0.4 mm 2 m/S 754 mmHg 91%
    09:00 +28°C° 0.4 mm 2 m/S 754 mmHg 86%
    10:00 +29°C° 0.4 mm 2 m/S 754 mmHg 81%
    11:00 +30°C° 0.3 mm 2 m/S 754 mmHg 75%
    12:00 +31°C° 0.3 mm 2 m/S 753 mmHg 69%
    13:00 +32°C° 0.3 mm 2 m/S 752 mmHg 63%
    14:00 +32°C° 0 mm 2 m/S 751 mmHg 63%
    15:00 +32°C° 0 mm 2 m/S 751 mmHg 63%
    16:00 +32°C° 0 mm 2 m/S 751 mmHg 63%
    17:00 +30°C° 0.1 mm 2 m/S 751 mmHg 71%
    18:00 +29°C° 0.1 mm 1 m/S 752 mmHg 80%
    19:00 +27°C° 0.1 mm 1 m/S 752 mmHg 89%
    20:00 +26°C° 0 mm 1 m/S 753 mmHg 91%
    21:00 +26°C° 0 mm 1 m/S 753 mmHg 93%
    22:00 +25°C° 0 mm 1 m/S 753 mmHg 95%
    23:00 +25°C° 0 mm 1 m/S 753 mmHg 96%

    26 Oktober, Samstag

    Zeit Temperatur Niederschläge Wind Luftdruck Luftfeuchtigkeit
    00:00 +25°C° 0 mm 1 m/S 753 mmHg 96%
    01:00 +25°C° 0 mm 1 m/S 753 mmHg 97%
    02:00 +25°C° 0 mm 1 m/S 753 mmHg 96%
    03:00 +25°C° 0 mm 1 m/S 753 mmHg 95%
    04:00 +25°C° 0 mm 1 m/S 752 mmHg 95%
    05:00 +25°C° 0 mm 1 m/S 753 mmHg 94%
    06:00 +25°C° 0 mm 1 m/S 753 mmHg 94%
    07:00 +25°C° 0 mm 1 m/S 753 mmHg 93%
    08:00 +26°C° 0.1 mm 1 m/S 754 mmHg 90%
    09:00 +27°C° 0.1 mm 1 m/S 754 mmHg 86%
    10:00 +28°C° 0.1 mm 1 m/S 754 mmHg 82%
    11:00 +28°C° 0.6 mm 1 m/S 753 mmHg 83%
    12:00 +26°C° 0.6 mm 0 m/S 753 mmHg 83%
    13:00 +26°C° 0.6 mm 0 m/S 752 mmHg 84%
    14:00 +26°C° 0.6 mm 0 m/S 752 mmHg 83%
    15:00 +26°C° 0.6 mm 0 m/S 751 mmHg 83%
    16:00 +29°C° 0.6 mm 1 m/S 751 mmHg 83%
    17:00 +28°C° 1.4 mm 1 m/S 752 mmHg 87%
    18:00 +27°C° 1.4 mm 1 m/S 752 mmHg 90%
    19:00 +26°C° 1.4 mm 2 m/S 753 mmHg 94%
    20:00 +26°C° 2.1 mm 2 m/S 753 mmHg 94%
    21:00 +25°C° 2.1 mm 3 m/S 754 mmHg 95%
    22:00 +25°C° 2.1 mm 3 m/S 754 mmHg 96%
    23:00 +25°C° 0.6 mm 2 m/S 754 mmHg 96%

    27 Oktober, Sonntag

    Zeit Temperatur Niederschläge Wind Luftdruck Luftfeuchtigkeit
    00:00 +25°C° 0.6 mm 2 m/S 753 mmHg 97%
    01:00 +25°C° 0.6 mm 1 m/S 753 mmHg 97%
    02:00 +24°C° 0.3 mm 1 m/S 753 mmHg 97%
    03:00 +24°C° 0.3 mm 1 m/S 752 mmHg 97%
    04:00 +24°C° 0.3 mm 1 m/S 752 mmHg 97%
    05:00 +24°C° 0.1 mm 1 m/S 752 mmHg 97%
    06:00 +24°C° 0.1 mm 1 m/S 753 mmHg 96%
    07:00 +22°C° 0.1 mm 0 m/S 753 mmHg 96%
    08:00 +23°C° 0 mm 0 m/S 753 mmHg 91%
    09:00 +24°C° 0 mm 0 m/S 753 mmHg 86%
    10:00 +25°C° 0 mm 0 m/S 753 mmHg 81%
    11:00 +26°C° 0 mm 0 m/S 753 mmHg 79%
    12:00 +26°C° 0 mm 0 m/S 752 mmHg 77%
    13:00 +27°C° 0 mm 0 m/S 752 mmHg 76%
    14:00 +28°C° 0.2 mm 1 m/S 751 mmHg 80%
    15:00 +27°C° 0.2 mm 1 m/S 751 mmHg 84%
    16:00 +27°C° 0.2 mm 1 m/S 751 mmHg 88%
    17:00 +26°C° 0.7 mm 1 m/S 751 mmHg 89%
    18:00 +26°C° 0.7 mm 1 m/S 752 mmHg 91%
    19:00 +25°C° 0.7 mm 1 m/S 752 mmHg 93%
    20:00 +23°C° 0.4 mm 0 m/S 753 mmHg 94%
    21:00 +23°C° 0.4 mm 0 m/S 753 mmHg 95%
    22:00 +23°C° 0.4 mm 0 m/S 753 mmHg 96%
    23:00 +22°C° 0 mm 0 m/S 753 mmHg 97%

    28 Oktober, Montag

    Zeit Temperatur Niederschläge Wind Luftdruck Luftfeuchtigkeit
    00:00 +22°C° 0 mm 0 m/S 753 mmHg 97%
    01:00 +22°C° 0 mm 0 m/S 753 mmHg 97%
    02:00 +22°C° 0 mm 0 m/S 752 mmHg 98%
    03:00 +22°C° 0 mm 0 m/S 752 mmHg 98%
    04:00 +22°C° 0 mm 0 m/S 752 mmHg 98%
    05:00 +22°C° 0 mm 0 m/S 752 mmHg 97%
    06:00 +22°C° 0 mm 0 m/S 753 mmHg 97%
    07:00 +23°C° 0 mm 0 m/S 753 mmHg 96%
    08:00 +25°C° 0 mm 0 m/S 753 mmHg 87%
    09:00 +27°C° 0 mm 0 m/S 753 mmHg 78%
    10:00 +31°C° 0 mm 1 m/S 753 mmHg 69%
    11:00 +31°C° 0 mm 1 m/S 753 mmHg 64%
    12:00 +32°C° 0 mm 1 m/S 752 mmHg 59%
    13:00 +33°C° 0 mm 1 m/S 751 mmHg 54%
    14:00 +32°C° 0.2 mm 1 m/S 751 mmHg 58%
    15:00 +32°C° 0.2 mm 1 m/S 750 mmHg 62%
    16:00 +31°C° 0.2 mm 1 m/S 750 mmHg 67%
    17:00 +29°C° 0.3 mm 1 m/S 750 mmHg 75%
    18:00 +28°C° 0.3 mm 2 m/S 751 mmHg 84%
    19:00 +26°C° 0.3 mm 2 m/S 752 mmHg 93%
    20:00 +25°C° 0 mm 1 m/S 752 mmHg 94%
    21:00 +25°C° 0 mm 1 m/S 752 mmHg 95%
    22:00 +25°C° 0 mm 1 m/S 753 mmHg 96%
    23:00 +24°C° 0 mm 1 m/S 753 mmHg 96%

    29 Oktober, Dienstag

    Zeit Temperatur Niederschläge Wind Luftdruck Luftfeuchtigkeit
    00:00 +22°C° 0 mm 0 m/S 753 mmHg 97%
    01:00 +22°C° 0 mm 0 m/S 752 mmHg 97%
    02:00 +22°C° 0 mm 0 m/S 752 mmHg 97%
    03:00 +22°C° 0 mm 0 m/S 752 mmHg 97%
    04:00 +22°C° 0 mm 0 m/S 751 mmHg 97%
    05:00 +22°C° 0 mm 0 m/S 752 mmHg 97%
    06:00 +22°C° 0 mm 0 m/S 752 mmHg 96%
    07:00 +24°C° 0 mm 1 m/S 752 mmHg 95%
    08:00 +26°C° 0.1 mm 1 m/S 753 mmHg 90%
    09:00 +27°C° 0.1 mm 1 m/S 753 mmHg 85%
    10:00 +28°C° 0.1 mm 1 m/S 754 mmHg 80%
    11:00 +29°C° 0 mm 1 m/S 753 mmHg 74%
    12:00 +30°C° 0 mm 1 m/S 752 mmHg 67%
    13:00 +32°C° 0 mm 1 m/S 752 mmHg 61%
    14:00 +31°C° 0.4 mm 1 m/S 751 mmHg 65%
    15:00 +31°C° 0.4 mm 2 m/S 751 mmHg 70%
    16:00 +30°C° 0.4 mm 2 m/S 750 mmHg 75%
    17:00 +28°C° 0.2 mm 2 m/S 751 mmHg 81%
    18:00 +27°C° 0.2 mm 1 m/S 751 mmHg 87%
    19:00 +25°C° 0.2 mm 1 m/S 751 mmHg 93%
    20:00 +25°C° 0 mm 1 m/S 752 mmHg 94%
    21:00 +25°C° 0 mm 1 m/S 752 mmHg 95%
    22:00 +25°C° 0 mm 1 m/S 753 mmHg 96%
    23:00 +22°C° 0 mm 0 m/S 752 mmHg 96%
    Mehr zeigen